Weather History for KBVO - August, 2013

Change the Weather History Date:

Friday, August 2, 2013

  Actual Average Record
Temperature  
Mean Temperature 82 °F -  
Max Temperature 91 °F 93 °F 111 °F (2011)
Min Temperature 72 °F 67 °F 54 °F (1971)
Cooling Degree Days 16    
Growing Degree Days 32 (Base 50)    
Moisture  
Dew Point 75 °F    
Average Humidity 88    
Maximum Humidity 100    
Minimum Humidity 66    
Precipitation  
Precipitation 0.35 in - - ()
Sea Level Pressure  
Sea Level Pressure 29.88 in    
Wind  
Wind Speed 4 mph (SSE)    
Max Wind Speed 12 mph    
Max Gust Speed 17 mph    
Visibility 8 miles    
Events Rain , Thunderstorm    
Averages and records for this station are not official NWS values.
T = Trace of Precipitation, MM = Missing Value Source: NWS Daily Summary

Daily Weather History Graph

Daily Weather History Graph

Search for Another Location

Airport or City:

Trip Planner

Search our weather history database for the weather conditions in past years. The results will help you decide how hot, cold, wet, or windy it might be!

Date:

Astronomy

Aug. 02, 2013 Rise Set
Actual Time 6:30 AM CDT 8:29 PM CDT
Civil Twilight 6:02 AM CDT 8:57 PM CDT
Nautical Twilight 5:27 AM CDT 9:32 PM CDT
Astronomical Twilight 4:50 AM CDT 10:09 PM CDT
Moon 2:53 AM CDT (8/2) 5:26 PM CDT (8/2)
Length of Visible Light 14h 55m
Length of Day
13h 58m
Waning Crescent, 15% of the Moon is Illuminated
Aug 2
Waning Crescent
Aug 6
New
Aug 14
First Quarter
Aug 20
Full
Aug 28
Last Quarter

Hourly Weather History & Observations

Time (CDT) Temp. Heat Index Dew Point Humidity Pressure Visibility Wind Dir Wind Speed Gust Speed Precip Events Conditions
12:53 AM 72.0 °F - 71.1 °F 97% 29.93 in 10.0 mi SSW 4.6 mph - N/A   Clear
1:53 AM 73.9 °F - 72.0 °F 93% 29.89 in 10.0 mi Calm Calm - N/A   Clear
2:53 AM 75.0 °F - 70.0 °F 84% 29.88 in 10.0 mi South 4.6 mph - N/A   Clear
3:53 AM 75.9 °F - 70.0 °F 82% 29.89 in 10.0 mi SSW 3.5 mph - N/A   Clear
4:53 AM 73.9 °F - 70.0 °F 87% 29.88 in 10.0 mi Calm Calm - N/A   Clear
5:53 AM 73.0 °F - 71.1 °F 93% 29.88 in 10.0 mi Calm Calm - N/A   Clear
6:53 AM 73.9 °F - 72.0 °F 93% 29.91 in 10.0 mi Calm Calm - N/A   Scattered Clouds
7:53 AM 75.9 °F - 73.0 °F 91% 29.88 in 10.0 mi East 4.6 mph - N/A   Clear
8:53 AM 75.0 °F - 73.0 °F 94% 29.91 in 9.0 mi ENE 3.5 mph - N/A   Clear
9:23 AM 75.2 °F - 73.4 °F 94% 29.96 in 5.0 mi North 3.5 mph - 0.01 in Rain , Thunderstorm Light Rain
9:45 AM 75.2 °F - 73.4 °F 94% 29.99 in 4.0 mi Calm Calm - 0.02 in Rain , Thunderstorm Light Thunderstorms and Rain
9:53 AM 73.9 °F - 73.9 °F 100% 29.98 in 4.0 mi Variable 3.5 mph - 0.05 in Rain , Thunderstorm Thunderstorms and Rain
10:04 AM 73.4 °F - 73.4 °F 100% 30.00 in 2.5 mi North 8.1 mph 17.3 mph 0.11 in Rain , Thunderstorm Heavy Thunderstorms and Rain
10:08 AM 73.4 °F - 73.4 °F 100% 30.01 in 3.0 mi Calm Calm - 0.12 in Rain , Thunderstorm Thunderstorms and Rain
10:53 AM 73.0 °F - 73.0 °F 100% 29.94 in 5.0 mi South 9.2 mph - 0.25 in Rain , Thunderstorm Light Thunderstorms and Rain
11:30 AM 75.2 °F - 73.4 °F 94% 29.94 in 8.0 mi ESE 3.5 mph - 0.02 in   Overcast
11:53 AM 75.9 °F - 75.0 °F 97% 29.88 in 3.0 mi South 6.9 mph - 0.05 in Rain Light Rain
12:53 PM 81.0 °F 87.9 °F 77.0 °F 88% 29.86 in 8.0 mi South 9.2 mph 17.3 mph 0.00 in   Mostly Cloudy
1:53 PM 84.9 °F 95.3 °F 77.0 °F 77% 29.84 in 9.0 mi South 11.5 mph 17.3 mph N/A   Mostly Cloudy
2:53 PM 89.1 °F 104.4 °F 79.0 °F 72% 29.82 in 10.0 mi South 8.1 mph - N/A   Clear
3:53 PM 90.0 °F 105.8 °F 79.0 °F 70% 29.80 in 10.0 mi South 9.2 mph - N/A   Clear
4:53 PM 91.9 °F 110.4 °F 80.1 °F 68% 29.80 in 10.0 mi South 9.2 mph - N/A   Clear
5:53 PM 91.9 °F 108.8 °F 79.0 °F 66% 29.80 in 10.0 mi SSW 5.8 mph - N/A   Partly Cloudy
6:53 PM 90.0 °F 104.5 °F 78.1 °F 68% 29.79 in 10.0 mi South 6.9 mph - N/A   Clear
7:53 PM 88.0 °F 103.1 °F 79.0 °F 75% 29.80 in 10.0 mi SSE 3.5 mph - N/A   Partly Cloudy
8:53 PM 82.0 °F 92.8 °F 80.1 °F 94% 29.81 in 10.0 mi Calm Calm - N/A   Clear
9:53 PM 82.9 °F 93.8 °F 79.0 °F 88% 29.82 in 10.0 mi Calm Calm - N/A   Clear
10:53 PM 82.0 °F 91.0 °F 78.1 °F 88% 29.82 in 10.0 mi Calm Calm - N/A   Clear
11:53 PM 80.1 °F 86.4 °F 78.1 °F 94% 29.83 in 9.0 mi Calm Calm - N/A   Clear